N7L KDTW-KORF

Flight info

Callsign N7L
Flight time 1h 15m
Altitude 41000
Route LIDDS4 GRIVY NUSMM MAULS OUTLA1
Aircraft B738/M-SDE2E3FGHIRWXY/LB1

Departure

Time 2026-05-06 17:32
Airport Detroit Metropolitan Wayne County Airport (KDTW)

Arrival

Time 2026-05-06 18:48
Airport Norfolk International Airport (KORF)
Time Latitude Longitude Altitude Speed Heading
2026-05-06 17:09 42.22794 -83.34105 639 ft 0 kts 212°
2026-05-06 17:23 42.22793 -83.34105 648 ft 1 kts 208°
2026-05-06 17:23 42.22776 -83.34107 649 ft 5 kts 195°
2026-05-06 17:24 42.22770 -83.34126 650 ft 2 kts 287°
2026-05-06 17:24 42.22780 -83.34131 648 ft 2 kts 344°
2026-05-06 17:24 42.22794 -83.34131 651 ft 3 kts
2026-05-06 17:24 42.22814 -83.34112 649 ft 2 kts 62°
2026-05-06 17:25 42.22816 -83.34092 648 ft 2 kts 92°
2026-05-06 17:25 42.22812 -83.34074 648 ft 2 kts 109°
2026-05-06 17:25 42.22807 -83.34051 648 ft 5 kts 107°
2026-05-06 17:25 42.22783 -83.33985 648 ft 10 kts 121°
2026-05-06 17:26 42.22753 -83.33910 648 ft 9 kts 117°
2026-05-06 17:26 42.22704 -83.33882 648 ft 9 kts 193°
2026-05-06 17:26 42.22651 -83.33916 648 ft 8 kts 208°
2026-05-06 17:26 42.22594 -83.33957 648 ft 12 kts 208°
2026-05-06 17:27 42.22503 -83.34023 648 ft 17 kts 209°
2026-05-06 17:27 42.22394 -83.34105 647 ft 18 kts 208°
2026-05-06 17:27 42.22286 -83.34185 647 ft 18 kts 208°
2026-05-06 17:27 42.22181 -83.34263 647 ft 17 kts 208°
2026-05-06 17:28 42.22080 -83.34336 648 ft 16 kts 209°
2026-05-06 17:28 42.21982 -83.34409 648 ft 16 kts 208°
2026-05-06 17:28 42.21892 -83.34476 648 ft 15 kts 208°
2026-05-06 17:28 42.21801 -83.34543 648 ft 14 kts 208°
2026-05-06 17:29 42.21714 -83.34607 648 ft 15 kts 208°
2026-05-06 17:29 42.21612 -83.34682 649 ft 18 kts 208°
2026-05-06 17:29 42.21491 -83.34771 647 ft 21 kts 209°
2026-05-06 17:29 42.21362 -83.34867 647 ft 21 kts 208°
2026-05-06 17:30 42.21236 -83.34960 648 ft 20 kts 208°
2026-05-06 17:30 42.21116 -83.35049 648 ft 20 kts 208°
2026-05-06 17:30 42.21003 -83.35131 648 ft 17 kts 208°
2026-05-06 17:30 42.20919 -83.35193 648 ft 12 kts 208°
2026-05-06 17:31 42.20839 -83.35207 648 ft 12 kts 154°
2026-05-06 17:31 42.20816 -83.35108 648 ft 12 kts 62°
2026-05-06 17:31 42.20887 -83.35046 645 ft 12 kts 29°
2026-05-06 17:31 42.20989 -83.34970 645 ft 32 kts 29°
2026-05-06 17:32 42.21419 -83.34655 646 ft 108 kts 28°
2026-05-06 17:32 42.22259 -83.34008 741 ft 159 kts 27°
2026-05-06 17:32 42.23191 -83.33224 1633 ft 159 kts 27°
2026-05-06 17:32 42.24178 -83.32395 2346 ft 179 kts 34°
2026-05-06 17:33 42.24956 -83.30862 2717 ft 216 kts 62°
2026-05-06 17:33 42.25676 -83.28920 2947 ft 243 kts 60°
2026-05-06 17:33 42.26472 -83.26855 3594 ft 250 kts 60°
2026-05-06 17:33 42.27124 -83.24648 4336 ft 258 kts 79°
2026-05-06 17:34 42.27226 -83.22240 5039 ft 263 kts 92°
2026-05-06 17:34 42.27201 -83.19674 5485 ft 284 kts 101°
2026-05-06 17:34 42.26387 -83.17251 6301 ft 283 kts 129°
2026-05-06 17:34 42.25230 -83.15110 6830 ft 286 kts 129°
2026-05-06 17:35 42.24096 -83.12841 7617 ft 294 kts 127°
2026-05-06 17:35 42.22992 -83.10483 8526 ft 298 kts 127°
2026-05-06 17:35 42.21905 -83.08093 9373 ft 304 kts 127°
2026-05-06 17:36 42.19720 -83.03024 10581 ft 330 kts 125°
2026-05-06 17:36 42.18542 -83.00214 10784 ft 356 kts 124°
2026-05-06 17:36 42.17295 -82.97222 11221 ft 371 kts 124°
2026-05-06 17:36 42.16012 -82.94141 11921 ft 378 kts 124°
2026-05-06 17:37 42.14723 -82.91049 12700 ft 382 kts 125°
2026-05-06 17:37 42.13421 -82.87939 13524 ft 386 kts 125°
2026-05-06 17:37 42.12084 -82.84757 14264 ft 391 kts 126°
2026-05-06 17:37 42.10755 -82.81600 14977 ft 396 kts 126°
2026-05-06 17:38 42.09392 -82.78372 15459 ft 407 kts 126°
2026-05-06 17:38 42.07996 -82.75068 16169 ft 409 kts 126°
2026-05-06 17:38 42.06838 -82.71512 17002 ft 421 kts 111°
2026-05-06 17:38 42.06131 -82.67636 17789 ft 427 kts 108°
2026-05-06 17:39 42.05473 -82.63752 18427 ft 433 kts 108°
2026-05-06 17:39 42.04780 -82.59761 19005 ft 439 kts 108°
2026-05-06 17:39 42.04048 -82.55731 19606 ft 443 kts 109°
2026-05-06 17:39 42.03300 -82.51731 20202 ft 448 kts 109°
2026-05-06 17:40 42.02532 -82.47618 20786 ft 453 kts 108°
2026-05-06 17:40 42.01775 -82.43502 21356 ft 458 kts 108°
2026-05-06 17:40 42.01003 -82.39275 21927 ft 464 kts 108°
2026-05-06 17:40 42.00237 -82.35073 22463 ft 468 kts 108°
2026-05-06 17:41 41.99447 -82.30759 23027 ft 473 kts 108°
2026-05-06 17:41 41.98660 -82.26475 23536 ft 478 kts 108°
2026-05-06 17:41 41.97860 -82.22132 23966 ft 483 kts 108°
2026-05-06 17:41 41.97043 -82.17712 24389 ft 488 kts 108°
2026-05-06 17:42 41.96214 -82.13312 24796 ft 491 kts 111°
2026-05-06 17:42 41.94834 -82.09134 25166 ft 483 kts 129°
2026-05-06 17:42 41.92759 -82.05720 25588 ft 469 kts 146°
2026-05-06 17:42 41.90240 -82.02976 26047 ft 464 kts 152°
2026-05-06 17:43 41.87676 -82.00373 26443 ft 467 kts 153°
2026-05-06 17:43 41.85045 -81.97716 26841 ft 471 kts 153°
2026-05-06 17:43 41.82450 -81.95060 27220 ft 475 kts 153°
2026-05-06 17:43 41.79807 -81.92316 27608 ft 479 kts 153°
2026-05-06 17:44 41.77190 -81.89574 27988 ft 483 kts 153°
2026-05-06 17:44 41.74516 -81.86763 28348 ft 486 kts 153°
2026-05-06 17:44 41.71861 -81.83979 28706 ft 490 kts 153°
2026-05-06 17:44 41.69150 -81.81156 29052 ft 492 kts 154°
2026-05-06 17:45 41.66390 -81.78394 29387 ft 493 kts 155°
2026-05-06 17:45 41.63625 -81.75702 29717 ft 496 kts 156°
2026-05-06 17:45 41.60828 -81.73006 30027 ft 499 kts 156°
2026-05-06 17:45 41.57989 -81.70271 30284 ft 502 kts 156°
2026-05-06 17:46 41.55180 -81.67553 30529 ft 505 kts 156°
2026-05-06 17:46 41.52316 -81.64772 30778 ft 508 kts 156°
2026-05-06 17:46 41.49449 -81.61981 31086 ft 510 kts 156°
2026-05-06 17:46 41.46577 -81.59179 31449 ft 510 kts 156°
2026-05-06 17:47 41.43736 -81.56409 31813 ft 509 kts 156°
2026-05-06 17:47 41.40854 -81.53604 32146 ft 510 kts 156°
2026-05-06 17:47 41.37981 -81.50815 32448 ft 511 kts 156°
2026-05-06 17:47 41.35134 -81.48056 32738 ft 512 kts 156°
2026-05-06 17:48 41.32244 -81.45258 33039 ft 512 kts 157°
2026-05-06 17:48 41.29360 -81.42469 33372 ft 512 kts 157°
2026-05-06 17:48 41.26460 -81.39666 33681 ft 513 kts 157°
2026-05-06 17:48 41.23592 -81.36899 33971 ft 514 kts 157°
2026-05-06 17:49 41.20698 -81.34109 34256 ft 514 kts 157°
2026-05-06 17:49 41.17790 -81.31307 34574 ft 513 kts 157°
2026-05-06 17:49 41.14928 -81.28551 34867 ft 512 kts 157°
2026-05-06 17:49 41.12045 -81.25781 35121 ft 513 kts 157°
2026-05-06 17:50 41.09142 -81.23018 35412 ft 509 kts 160°
2026-05-06 17:50 41.06107 -81.20923 35695 ft 477 kts 176°
2026-05-06 17:50 41.02955 -81.19701 36046 ft 467 kts 180°
2026-05-06 17:50 40.99852 -81.18566 36343 ft 466 kts 180°
2026-05-06 17:51 40.96703 -81.17413 36563 ft 468 kts 180°
2026-05-06 17:51 40.93545 -81.16239 36787 ft 469 kts 179°
2026-05-06 17:51 40.90429 -81.15057 37056 ft 469 kts 179°
2026-05-06 17:51 40.87307 -81.13856 37348 ft 469 kts 179°
2026-05-06 17:52 40.84162 -81.12638 37604 ft 469 kts 179°
2026-05-06 17:52 40.82077 -81.11829 37751 ft 469 kts 179°
2026-05-06 17:52 40.78934 -81.10609 37979 ft 470 kts 179°
2026-05-06 17:52 40.75792 -81.09390 38236 ft 469 kts 179°
2026-05-06 17:53 40.72678 -81.08183 38493 ft 468 kts 179°
2026-05-06 17:53 40.69545 -81.06972 38688 ft 468 kts 179°
2026-05-06 17:53 40.66407 -81.05761 38855 ft 469 kts 179°
2026-05-06 17:53 40.63304 -81.04565 39051 ft 468 kts 179°
2026-05-06 17:54 40.60168 -81.03356 39256 ft 467 kts 179°
2026-05-06 17:54 40.57047 -81.02155 39438 ft 467 kts 179°
2026-05-06 17:54 40.53937 -81.00961 39617 ft 467 kts 179°
2026-05-06 17:54 40.50817 -80.99763 39828 ft 465 kts 178°
2026-05-06 17:55 40.47705 -80.98568 40024 ft 465 kts 178°
2026-05-06 17:55 40.44590 -80.97375 40173 ft 465 kts 178°
2026-05-06 17:55 40.41519 -80.96201 40339 ft 465 kts 178°
2026-05-06 17:55 40.38400 -80.95008 40547 ft 464 kts 178°
2026-05-06 17:56 40.35313 -80.93828 40727 ft 463 kts 178°
2026-05-06 17:56 40.32235 -80.92653 40869 ft 463 kts 178°
2026-05-06 17:56 40.26019 -80.90289 40911 ft 466 kts 178°
2026-05-06 17:57 40.19803 -80.87919 40909 ft 463 kts 178°
2026-05-06 17:57 40.13629 -80.85572 40912 ft 460 kts 178°
2026-05-06 17:58 40.07472 -80.83240 40913 ft 458 kts 178°
2026-05-06 17:58 40.01397 -80.80465 40910 ft 478 kts 167°
2026-05-06 17:59 39.95511 -80.76297 40917 ft 483 kts 164°
2026-05-06 17:59 39.89655 -80.71986 40919 ft 484 kts 164°
2026-05-06 18:00 39.83769 -80.67725 40920 ft 484 kts 165°
2026-05-06 18:00 39.77861 -80.63516 40907 ft 485 kts 165°
2026-05-06 18:01 39.71954 -80.59336 40909 ft 486 kts 165°
2026-05-06 18:01 39.66009 -80.55141 40894 ft 486 kts 165°
2026-05-06 18:02 39.60059 -80.50947 40893 ft 488 kts 165°
2026-05-06 18:02 39.54076 -80.46734 40888 ft 489 kts 165°
2026-05-06 18:03 39.48112 -80.42543 40899 ft 490 kts 165°
2026-05-06 18:03 39.42086 -80.38317 40896 ft 490 kts 165°
2026-05-06 18:04 39.36098 -80.34125 40902 ft 490 kts 165°
2026-05-06 18:04 39.30117 -80.29946 40917 ft 490 kts 165°
2026-05-06 18:05 39.24118 -80.25763 40912 ft 490 kts 165°
2026-05-06 18:05 39.18099 -80.21575 40900 ft 489 kts 165°
2026-05-06 18:06 39.12126 -80.17427 40894 ft 489 kts 165°
2026-05-06 18:06 39.06162 -80.13294 40886 ft 488 kts 165°
2026-05-06 18:07 39.00164 -80.09146 40894 ft 487 kts 165°
2026-05-06 18:07 38.94198 -80.05027 40889 ft 487 kts 165°
2026-05-06 18:08 38.88256 -80.00932 40899 ft 487 kts 165°
2026-05-06 18:08 38.82252 -79.96803 40902 ft 487 kts 165°
2026-05-06 18:09 38.76292 -79.92716 40892 ft 488 kts 165°
2026-05-06 18:09 38.70325 -79.88628 40892 ft 488 kts 165°
2026-05-06 18:10 38.64313 -79.84517 40896 ft 489 kts 165°
2026-05-06 18:10 38.58328 -79.80430 40890 ft 489 kts 165°
2026-05-06 18:11 38.52331 -79.76345 40885 ft 489 kts 165°
2026-05-06 18:11 38.46292 -79.72242 40880 ft 491 kts 165°
2026-05-06 18:12 38.40261 -79.68151 40876 ft 493 kts 165°
2026-05-06 18:12 38.34204 -79.64050 40852 ft 494 kts 164°
2026-05-06 18:13 38.28141 -79.59947 40879 ft 495 kts 165°
2026-05-06 18:13 38.22038 -79.55828 40893 ft 496 kts 164°
2026-05-06 18:14 38.15946 -79.51728 40939 ft 498 kts 164°
2026-05-06 18:14 38.09840 -79.47622 40988 ft 498 kts 164°
2026-05-06 18:15 38.03732 -79.43523 40873 ft 501 kts 164°
2026-05-06 18:15 38.00622 -79.41445 40375 ft 506 kts 164°
2026-05-06 18:15 37.97531 -79.39372 39838 ft 505 kts 164°
2026-05-06 18:16 37.94411 -79.37282 39281 ft 504 kts 164°
2026-05-06 18:16 37.91317 -79.35074 38637 ft 517 kts 154°
2026-05-06 18:16 37.88665 -79.31915 37960 ft 540 kts 136°
2026-05-06 18:16 37.86673 -79.27827 37284 ft 555 kts 116°
2026-05-06 18:17 37.85459 -79.23146 36681 ft 556 kts 109°
2026-05-06 18:17 37.84444 -79.18472 35937 ft 557 kts 108°
2026-05-06 18:17 37.83451 -79.13708 35129 ft 559 kts 108°
2026-05-06 18:17 37.82449 -79.08946 34487 ft 556 kts 108°
2026-05-06 18:18 37.81446 -79.04309 33702 ft 553 kts 110°
2026-05-06 18:18 37.80391 -78.99598 32737 ft 554 kts 110°
2026-05-06 18:18 37.79326 -78.94944 31994 ft 545 kts 110°
2026-05-06 18:18 37.78269 -78.90376 31145 ft 546 kts 111°
2026-05-06 18:19 37.77191 -78.85747 30302 ft 546 kts 111°
2026-05-06 18:19 37.76121 -78.81151 29633 ft 541 kts 111°
2026-05-06 18:19 37.75070 -78.76631 28922 ft 535 kts 111°
2026-05-06 18:19 37.74028 -78.72144 28262 ft 529 kts 111°
2026-05-06 18:20 37.73005 -78.67743 27633 ft 522 kts 110°
2026-05-06 18:20 37.71981 -78.63352 26998 ft 517 kts 110°
2026-05-06 18:20 37.70978 -78.59056 26378 ft 512 kts 110°
2026-05-06 18:20 37.69970 -78.54750 25754 ft 507 kts 110°
2026-05-06 18:21 37.68970 -78.50487 25111 ft 504 kts 110°
2026-05-06 18:21 37.67976 -78.46258 24481 ft 500 kts 110°
2026-05-06 18:21 37.66983 -78.42038 23846 ft 498 kts 109°
2026-05-06 18:21 37.66007 -78.37898 23162 ft 495 kts 109°
2026-05-06 18:22 37.65024 -78.33734 22478 ft 491 kts 109°
2026-05-06 18:22 37.64050 -78.29608 21857 ft 486 kts 109°
2026-05-06 18:22 37.63099 -78.25594 21257 ft 480 kts 109°
2026-05-06 18:22 37.62139 -78.21549 20797 ft 472 kts 109°
2026-05-06 18:23 37.61223 -78.17691 20682 ft 456 kts 109°
2026-05-06 18:23 37.60318 -78.13895 20522 ft 446 kts 109°
2026-05-06 18:23 37.59408 -78.10097 20384 ft 456 kts 109°
2026-05-06 18:23 37.58481 -78.06236 20250 ft 460 kts 109°
2026-05-06 18:24 37.57565 -78.02419 20083 ft 456 kts 109°
2026-05-06 18:24 37.56649 -77.98595 19927 ft 452 kts 109°
2026-05-06 18:24 37.55740 -77.94807 19773 ft 449 kts 109°
2026-05-06 18:24 37.54846 -77.91091 19626 ft 446 kts 109°
2026-05-06 18:25 37.53942 -77.87341 19485 ft 444 kts 109°
2026-05-06 18:25 37.53066 -77.83598 19341 ft 444 kts 106°
2026-05-06 18:25 37.52536 -77.79807 19202 ft 445 kts 97°
2026-05-06 18:25 37.52272 -77.75920 19057 ft 444 kts 95°
2026-05-06 18:26 37.52047 -77.72038 18912 ft 444 kts 95°
2026-05-06 18:26 37.51823 -77.68158 18759 ft 443 kts 95°
2026-05-06 18:26 37.51585 -77.64287 18615 ft 442 kts 95°
2026-05-06 18:26 37.51337 -77.60473 18468 ft 441 kts 96°
2026-05-06 18:27 37.51076 -77.56616 18315 ft 440 kts 96°
2026-05-06 18:27 37.50809 -77.52762 18155 ft 439 kts 96°
2026-05-06 18:27 37.50545 -77.48975 17989 ft 437 kts 96°
2026-05-06 18:27 37.50277 -77.45144 17812 ft 435 kts 96°
2026-05-06 18:28 37.50016 -77.41414 17668 ft 433 kts 96°
2026-05-06 18:28 37.49750 -77.37627 17529 ft 431 kts 96°
2026-05-06 18:28 37.49484 -77.33873 17392 ft 429 kts 96°
2026-05-06 18:28 37.49216 -77.30110 17246 ft 428 kts 96°
2026-05-06 18:29 37.48951 -77.26414 17107 ft 428 kts 96°
2026-05-06 18:29 37.48683 -77.22671 16961 ft 427 kts 96°
2026-05-06 18:29 37.48417 -77.18984 16819 ft 426 kts 96°
2026-05-06 18:29 37.48147 -77.15263 16658 ft 426 kts 96°
2026-05-06 18:30 37.47877 -77.11548 16531 ft 425 kts 96°
2026-05-06 18:30 37.47609 -77.07861 16383 ft 425 kts 96°
2026-05-06 18:30 37.47338 -77.04163 16239 ft 424 kts 96°
2026-05-06 18:30 37.47065 -77.00465 16111 ft 423 kts 96°
2026-05-06 18:31 37.46793 -76.96776 15969 ft 422 kts 96°
2026-05-06 18:31 37.46520 -76.93098 15830 ft 421 kts 96°
2026-05-06 18:31 37.46249 -76.89471 15683 ft 420 kts 96°
2026-05-06 18:31 37.45975 -76.85811 15541 ft 418 kts 96°
2026-05-06 18:32 37.45702 -76.82168 15412 ft 417 kts 96°
2026-05-06 18:32 37.45430 -76.78559 15264 ft 416 kts 96°
2026-05-06 18:32 37.45155 -76.74922 15125 ft 415 kts 97°
2026-05-06 18:32 37.44875 -76.71301 14988 ft 414 kts 97°
2026-05-06 18:33 37.44471 -76.67695 14848 ft 413 kts 101°
2026-05-06 18:33 37.43971 -76.64155 14703 ft 413 kts 102°
2026-05-06 18:33 37.43441 -76.60603 14557 ft 412 kts 102°
2026-05-06 18:33 37.42921 -76.57073 14417 ft 410 kts 102°
2026-05-06 18:34 37.42415 -76.53547 14275 ft 408 kts 102°
2026-05-06 18:34 37.41923 -76.50046 14135 ft 407 kts 102°
2026-05-06 18:34 37.41430 -76.46531 13988 ft 407 kts 102°
2026-05-06 18:34 37.40930 -76.43013 13526 ft 411 kts 102°
2026-05-06 18:35 37.40420 -76.39496 13049 ft 408 kts 102°
2026-05-06 18:35 37.39907 -76.35970 12580 ft 404 kts 102°
2026-05-06 18:35 37.39405 -76.32527 12138 ft 398 kts 103°
2026-05-06 18:35 37.38911 -76.29146 11700 ft 392 kts 103°
2026-05-06 18:36 37.38425 -76.25812 11276 ft 386 kts 103°
2026-05-06 18:36 37.37945 -76.22536 10854 ft 378 kts 103°
2026-05-06 18:36 37.37472 -76.19302 10435 ft 367 kts 103°
2026-05-06 18:36 37.37017 -76.16199 10045 ft 355 kts 103°
2026-05-06 18:37 37.36581 -76.13229 9892 ft 337 kts 103°
2026-05-06 18:37 37.36301 -76.11323 9884 ft 324 kts 104°
2026-05-06 18:37 37.35764 -76.07682 9467 ft 314 kts 104°
2026-05-06 18:37 37.35364 -76.04994 9051 ft 312 kts 104°
2026-05-06 18:38 37.35035 -76.03245 8739 ft 308 kts 115°
2026-05-06 18:38 37.33931 -76.01048 8303 ft 293 kts 143°
2026-05-06 18:38 37.32295 -75.99627 7934 ft 277 kts 163°
2026-05-06 18:38 37.30490 -75.98979 7610 ft 267 kts 179°
2026-05-06 18:39 37.28675 -75.98625 7383 ft 264 kts 180°
2026-05-06 18:39 37.26862 -75.98289 7117 ft 264 kts 179°
2026-05-06 18:39 37.25086 -75.98276 6832 ft 251 kts 199°
2026-05-06 18:40 37.21768 -75.99397 6124 ft 252 kts 202°
2026-05-06 18:40 37.20063 -75.99985 5755 ft 253 kts 201°
2026-05-06 18:40 37.18373 -76.00562 5441 ft 252 kts 201°
2026-05-06 18:40 37.16682 -76.01134 5153 ft 249 kts 201°
2026-05-06 18:41 37.15040 -76.01688 4881 ft 245 kts 201°
2026-05-06 18:41 37.13489 -76.02208 4611 ft 236 kts 201°
2026-05-06 18:41 37.11947 -76.02726 4343 ft 226 kts 201°
2026-05-06 18:41 37.10464 -76.03223 4099 ft 216 kts 201°
2026-05-06 18:42 37.09049 -76.03697 3865 ft 207 kts 201°
2026-05-06 18:42 37.07690 -76.04152 3652 ft 198 kts 200°
2026-05-06 18:42 37.06375 -76.04591 3457 ft 187 kts 201°
2026-05-06 18:42 37.05165 -76.05006 3250 ft 176 kts 204°
2026-05-06 18:43 37.04151 -76.05726 3069 ft 164 kts 217°
2026-05-06 18:43 37.03262 -76.06584 2885 ft 158 kts 219°
2026-05-06 18:43 37.02420 -76.07412 2711 ft 151 kts 218°
2026-05-06 18:43 37.01627 -76.08188 2538 ft 140 kts 218°
2026-05-06 18:44 37.00854 -76.08943 2404 ft 140 kts 217°
2026-05-06 18:44 37.00094 -76.09684 2230 ft 138 kts 217°
2026-05-06 18:44 36.99340 -76.10416 2087 ft 138 kts 217°
2026-05-06 18:44 36.98576 -76.11159 1951 ft 139 kts 217°
2026-05-06 18:45 36.97812 -76.11897 1819 ft 141 kts 217°
2026-05-06 18:45 36.97064 -76.12621 1651 ft 132 kts 215°
2026-05-06 18:45 36.96350 -76.13312 1488 ft 128 kts 215°
2026-05-06 18:45 36.95639 -76.14000 1324 ft 132 kts 216°
2026-05-06 18:46 36.94919 -76.14699 1149 ft 128 kts 215°
2026-05-06 18:46 36.94225 -76.15370 978 ft 125 kts 216°
2026-05-06 18:46 36.93538 -76.16036 838 ft 128 kts 217°
2026-05-06 18:46 36.92835 -76.16745 684 ft 131 kts 217°
2026-05-06 18:47 36.92110 -76.17435 531 ft 133 kts 216°
2026-05-06 18:47 36.91376 -76.18144 273 ft 130 kts 216°
2026-05-06 18:47 36.90683 -76.18815 83 ft 122 kts 215°
2026-05-06 18:47 36.90052 -76.19416 28 ft 99 kts 217°
2026-05-06 18:48 36.89671 -76.19784 28 ft 55 kts 218°
2026-05-06 18:48 36.89395 -76.20050 34 ft 45 kts 217°
2026-05-06 18:48 36.89168 -76.20270 32 ft 38 kts 218°
2026-05-06 18:48 36.88998 -76.20432 29 ft 17 kts 217°
2026-05-06 18:49 36.88920 -76.20466 29 ft 12 kts 156°
2026-05-06 18:49 36.88880 -76.20381 27 ft 11 kts 109°
2026-05-06 18:49 36.88865 -76.20327 27 ft 6 kts 109°
2026-05-06 18:49 36.88851 -76.20275 27 ft 6 kts 108°
2026-05-06 18:50 36.88838 -76.20224 27 ft 6 kts 108°
2026-05-06 18:50 36.88824 -76.20174 27 ft 6 kts 108°
2026-05-06 18:50 36.88815 -76.20114 26 ft 7 kts 109°
2026-05-06 18:50 36.88770 -76.20111 27 ft 7 kts 216°
2026-05-06 18:51 36.88730 -76.20150 27 ft 7 kts 221°
2026-05-06 18:51 36.88699 -76.20183 28 ft 5 kts 197°
2026-05-06 18:51 36.88672 -76.20168 28 ft 4 kts 138°
2026-05-06 18:51 36.88662 -76.20154 28 ft 0 kts 131°